Location: Barcelona
(41.3830°N, 2.1830°E)
Time: 11:53:00
(UTC+01:00)

ISS - Pass Details

Date: 20 March 2019
Orbit: 408 x 411 km, 51.6° (Epoch: 24 March)

Event Time Altitude Azimuth Distance (km) Brightness Sun altitude
Rises 19:37:48 0° 183° (S) 2,319 0.0 -7.3°
Reaches altitude 10° 19:41:22 10° 141° (SE) 1,464 -1.4 -8.0°
Maximum altitude 19:42:06 11° 129° (SE) 1,433 -1.6 -8.1°
Enters shadow 19:42:48 10° 116° (ESE) 1,465 -1.6 -8.3°
